Regional Weather Roundup
Issued by NWS Jackson, KY

Home | Current Version | Previous Version | Text Only | Print | Product List | Glossary Off
Versions: 1 2 3 4 5 6 7 8 9 10 11 12 13 14 15 16 17 18 19 20 21 22 23 24 25 26 27 28 29 30 31 32 33 34 35 36 37 38 39 40 41 42 43 44 45 46 47 48 49 50

000
ASUS43 KJKL 241910
RWRJKL

EAST KENTUCKY HOURLY WEATHER ROUNDUP
NATIONAL WEATHER SERVICE JACKSON KY
300 PM EDT SUN MAY 24 2015

NOTE: "FAIR" INDICATES FEW OR NO CLOUDS BELOW 12,000 FEET WITH
NO SIGNIFICANT WEATHER AND/OR OBSTRUCTIONS TO VISIBILITY.

* THESE REPORTS ARE NOT UNDER NWS QUALITY CONTROL AND MAY NOT
  REPORT WEATHER SUCH AS PRECIPITATION AND FOG.

KYZ079-080-083-085-087-088-110-112-115-119-120-242000
...EASTERN KENTUCKY...

CITY           SKY/WX    TMP DP  RH WIND       PRES   REMARKS
JACKSON        MOSUNNY   81  54  39 VRB5      30.27F
LONDON         SUNNY     82  45  27 SE10      30.26F
SOMERSET*      SUNNY     79  50  36 S7        30.25F
MONTICELLO*    MOSUNNY   82  58  43 VRB7      30.27F
MIDDLESBORO*   SUNNY     80  55  41 SE5       30.28F
HARLAN APT*    CLEAR     81  46  30 W3        30.29F
HAZARD APT*    CLEAR     84  52  32 SE6       30.26F
BLACK MTN*       N/A     72  48  43 S5          N/A
PIKEVILLE APT* MOSUNNY   81  54  39 E5        30.28F
BIG SANDY*     PTCLDY    82  54  37 S8        30.27F
MOREHEAD APT*  PTCLDY    82  50  32 SW10      30.27F
$$

KYZ035-036-041-042-044-050-067-078-099-242000
...CENTRAL KENTUCKY...

CITY           SKY/WX    TMP DP  RH WIND       PRES   REMARKS
MT STERLING*   SUNNY     82  50  32 SW9       30.25F
FLEMING/MASON* SUNNY     81  52  36 SE9       30.25F
DANVILLE*      SUNNY     82  54  36 S9G16     30.25F
RICHMOND*      SUNNY     82  48  30 SE6       30.24F
LEXINGTON      SUNNY     82  52  35 S14       30.23F
FRANKFORT      SUNNY     83  53  35 S9G20     30.21F
$$

KYZ091>093-OHZ055-061-077-WVZ005-015-034-035-042-242000
...SOUTHERN OHIO/WEST VIRGINIA...

CITY           SKY/WX    TMP DP  RH WIND       PRES   REMARKS
COVINGTON      PTSUNNY   83  54  36 S13G20    30.21F
COLUMBUS       PTSUNNY   80  52  37 VRB3      30.21F
DAYTON         PTSUNNY   83  53  35 S15G23    30.21F
WILMINGTON     MOSUNNY   80  48  32 S15G21    30.21F
HUNTINGTON     MOSUNNY   82  54  37 VRB3      30.25F
CHARLESTON     MOSUNNY   83  53  35 VRB3      30.26F
PINEVILLE*     SUNNY     83  51  33 MISG      30.35F
BECKLEY        MOSUNNY   76  49  38 SE7       30.34F
BLUEFIELD      SUNNY     78  45  30 S8        30.37F
$$

VAZ002-007-008-TNZ017-027-036-066-071-242000
...SOUTHWEST VIRGINIA/EAST TENNESSEE...

CITY           SKY/WX    TMP DP  RH WIND       PRES   REMARKS
WISE*          SUNNY     77  41  27 SE8       30.35F
JONESVILLE*    CLEAR     81  50  34 SW8       30.31F
ABINGDON*      SUNNY     81  49  31 SW5       30.33F
BRISTOL        MOSUNNY   81  47  30 CALM      30.30F
KNOXVILLE      MOSUNNY   82  52  35 VRB5      30.25F
OAK RIDGE      SUNNY     83  53  35 VRB7      30.28F
CROSSVILLE     SUNNY     76  55  48 SE10G18   30.30F
NASHVILLE      MOSUNNY   86  63  45 S9G22     30.18F
$$

...KEY TO REMARKS...
VSB - VISIBILITY IN MILES
WCI - WIND CHILL INDEX
HX  - HEAT INDEX

$$


USA.gov is the U.S. government's official web portal to all federal, state and local government web resources and services.